Location: Hope
(40.9110°N, 74.9680°W)
Time: 21:13:03
(UTC-05:00)

Envisat - Visible Passes

Search period start: 16 November 2018 00:00
Search period end: 26 November 2018 00:00
Orbit: 764 x 766 km, 98.2° (Epoch: 16 November)

Date Brightness Start Highest point End Pass type
(mag) Time Alt. Az. Time Alt. Az. Time Alt. Az.
16 Nov 3.4 18:16:53 22° SE 18:19:35 39° ENE 18:24:18 10° N visible
16 Nov 5.0 19:57:06 21° WSW 19:58:42 24° W 20:02:48 10° NW visible
17 Nov 4.3 17:39:54 11° ESE 17:43:11 19° ENE 17:46:40 10° NNE visible
17 Nov 3.6 19:20:08 38° SSW 19:21:46 54° W 19:26:45 10° NNW visible
18 Nov 2.8 18:43:09 38° SE 18:45:01 68° ENE 18:50:05 10° N visible
18 Nov 5.8 20:23:22 13° WSW 20:24:31 14° W 20:27:00 10° WNW visible
19 Nov 3.7 18:06:09 21° ESE 18:08:28 31° ENE 18:12:55 10° N visible
19 Nov 4.7 19:46:21 28° WSW 19:47:26 30° W 19:51:54 10° NW visible
20 Nov 6.5 06:16:24 10° E 06:16:41 10° E 06:16:59 10° E visible
20 Nov 4.5 17:29:17 10° E 17:32:08 15° ENE 17:34:59 10° NNE visible
20 Nov 3.2 19:09:21 50° SSW 19:10:33 69° WSW 19:15:38 10° NNW visible
21 Nov 3.0 18:32:18 39° SE 18:33:52 54° ENE 18:38:49 10° N visible
21 Nov 5.5 20:12:32 17° WSW 20:13:13 17° W 20:16:33 10° NW visible
22 Nov 3.9 17:55:16 19° ESE 17:57:23 25° ENE 18:01:30 10° NNE visible
22 Nov 4.2 19:35:29 36° WSW 19:36:11 38° W 19:40:56 10° NNW visible
23 Nov 4.7 17:19:11 10° E 17:21:05 12° ENE 17:23:01 10° NE visible
23 Nov 2.9 18:58:25 60° S 18:59:21 87° WSW 19:04:28 10° NNW visible
24 Nov 3.3 18:21:20 35° ESE 18:22:44 43° ENE 18:27:31 10° N visible
24 Nov 5.2 20:01:32 22° W 20:01:54 22° W 20:05:49 10° NW visible
25 Nov 4.2 17:44:14 16° E 17:46:18 20° ENE 17:49:59 10° NNE visible
25 Nov 3.8 19:20:03 10° S 19:24:57 49° W 19:29:53 10° NNW visible
